Year,Month,Day,Hour,Minute,Value (Times are PST for temperature in C)
2006,10,13,00,00,9.80
2006,10,13,00,01,9.80
2006,10,13,00,02,9.80
2006,10,13,00,03,9.80
2006,10,13,00,04,9.80
2006,10,13,00,05,9.80
2006,10,13,00,06,9.80
2006,10,13,00,07,9.70
2006,10,13,00,08,9.70
2006,10,13,00,09,9.70
2006,10,13,00,10,9.70
2006,10,13,00,11,9.70
2006,10,13,00,12,9.70
2006,10,13,00,13,9.70
2006,10,13,00,14,9.70
2006,10,13,00,15,9.60
2006,10,13,00,16,9.60
2006,10,13,00,17,9.60
2006,10,13,00,18,9.60
2006,10,13,00,19,9.60
2006,10,13,00,20,9.60
2006,10,13,00,21,9.60
2006,10,13,00,22,9.60
2006,10,13,00,23,9.60
2006,10,13,00,24,9.60
2006,10,13,00,25,9.60
2006,10,13,00,26,9.60
2006,10,13,00,27,9.60
2006,10,13,00,28,9.60
2006,10,13,00,29,9.60
2006,10,13,00,30,9.60
2006,10,13,00,31,9.60
2006,10,13,00,32,9.60
2006,10,13,00,33,9.60
2006,10,13,00,34,9.60
2006,10,13,00,35,9.60
2006,10,13,00,36,9.60
2006,10,13,00,37,9.60
2006,10,13,00,38,9.50
2006,10,13,00,39,9.50
2006,10,13,00,40,9.50
2006,10,13,00,41,9.50
2006,10,13,00,42,9.50
2006,10,13,00,43,9.50
2006,10,13,00,44,9.40
2006,10,13,00,45,9.40
2006,10,13,00,46,9.40
2006,10,13,00,47,9.40
2006,10,13,00,48,9.40
2006,10,13,00,49,9.30
2006,10,13,00,50,9.30
2006,10,13,00,51,9.30
2006,10,13,00,52,9.30
2006,10,13,00,53,9.20
2006,10,13,00,54,9.20
2006,10,13,00,55,9.20
2006,10,13,00,56,9.20
2006,10,13,00,57,9.20
2006,10,13,00,58,9.20
2006,10,13,00,59,9.10
2006,10,13,01,00,9.10
2006,10,13,01,01,9.10
2006,10,13,01,02,9.10
2006,10,13,01,03,9.10
2006,10,13,01,04,9.10
2006,10,13,01,05,9.10
2006,10,13,01,06,9.10
2006,10,13,01,07,9.00
2006,10,13,01,08,9.00
2006,10,13,01,09,9.00
2006,10,13,01,10,9.00
2006,10,13,01,11,8.90
2006,10,13,01,12,8.90
2006,10,13,01,13,8.90
2006,10,13,01,14,8.50
2006,10,13,01,15,7.70
2006,10,13,01,16,7.70
2006,10,13,01,17,7.70
2006,10,13,01,18,7.60
2006,10,13,01,19,7.60
2006,10,13,01,20,7.60
2006,10,13,01,21,7.60
2006,10,13,01,22,7.60
2006,10,13,01,23,7.60
2006,10,13,01,24,7.60
2006,10,13,01,25,7.60
2006,10,13,01,26,7.50
2006,10,13,01,27,7.50
2006,10,13,01,28,7.50
2006,10,13,01,29,7.60
2006,10,13,01,30,7.60
2006,10,13,01,31,7.60
2006,10,13,01,32,7.50
2006,10,13,01,33,7.50
2006,10,13,01,34,7.50
2006,10,13,01,35,7.50
2006,10,13,01,36,7.50
2006,10,13,01,37,7.50
2006,10,13,01,38,7.50
2006,10,13,01,39,7.50
2006,10,13,01,40,7.50
2006,10,13,01,41,8.50
2006,10,13,01,42,8.60
2006,10,13,01,43,8.60
2006,10,13,01,44,8.50
2006,10,13,01,45,8.50
2006,10,13,01,46,8.50
2006,10,13,01,47,8.50
2006,10,13,01,48,8.50
2006,10,13,01,49,8.40
2006,10,13,01,50,8.40
2006,10,13,01,51,8.30
2006,10,13,01,52,8.30
2006,10,13,01,53,8.30
2006,10,13,01,54,8.30
2006,10,13,01,55,8.30
2006,10,13,01,56,8.30
2006,10,13,01,57,8.30
2006,10,13,01,58,8.30
2006,10,13,01,59,8.30
2006,10,13,02,00,8.30
2006,10,13,02,01,8.30
2006,10,13,02,02,8.30
2006,10,13,02,03,8.30
2006,10,13,02,04,8.30
2006,10,13,02,05,8.40
2006,10,13,02,06,8.40
2006,10,13,02,07,8.40
2006,10,13,02,08,8.30
2006,10,13,02,09,8.40
2006,10,13,02,10,8.40
2006,10,13,02,11,8.40
2006,10,13,02,12,8.40
2006,10,13,02,13,7.30
2006,10,13,02,14,7.00
2006,10,13,02,15,7.00
2006,10,13,02,16,7.00
2006,10,13,02,17,6.90
2006,10,13,02,18,6.80
2006,10,13,02,19,6.80
2006,10,13,02,20,6.80
2006,10,13,02,21,6.70
2006,10,13,02,22,6.70
2006,10,13,02,23,6.70
2006,10,13,02,24,6.70
2006,10,13,02,25,6.70
2006,10,13,02,26,6.70
2006,10,13,02,27,6.70
2006,10,13,02,28,6.70
2006,10,13,02,29,6.70
2006,10,13,02,30,6.70
2006,10,13,02,31,6.60
2006,10,13,02,32,6.60
2006,10,13,02,33,6.60
2006,10,13,02,34,6.60
2006,10,13,02,35,6.60
2006,10,13,02,36,6.60
2006,10,13,02,37,6.60
2006,10,13,02,38,6.50
2006,10,13,02,39,6.50
2006,10,13,02,40,6.50
2006,10,13,02,41,6.50
2006,10,13,02,42,6.50
2006,10,13,02,43,6.40
2006,10,13,02,44,6.40
2006,10,13,02,45,6.40
2006,10,13,02,46,6.40
2006,10,13,02,47,6.40
2006,10,13,02,48,6.40
2006,10,13,02,49,6.40
2006,10,13,02,50,6.40
2006,10,13,02,51,6.40
2006,10,13,02,52,6.40
2006,10,13,02,53,6.40
2006,10,13,02,54,6.30
2006,10,13,02,55,6.30
2006,10,13,02,56,6.30
2006,10,13,02,57,6.30
2006,10,13,02,58,6.40
2006,10,13,02,59,6.40
2006,10,13,03,00,6.40
2006,10,13,03,01,6.40
2006,10,13,03,02,6.40
2006,10,13,03,03,6.40
2006,10,13,03,04,6.40
2006,10,13,03,05,6.40
2006,10,13,03,06,6.40
2006,10,13,03,07,6.40
2006,10,13,03,08,6.40
2006,10,13,03,09,6.40
2006,10,13,03,10,6.40
2006,10,13,03,11,6.40
2006,10,13,03,12,6.40
2006,10,13,03,13,6.40
2006,10,13,03,14,6.30
2006,10,13,03,15,6.30
2006,10,13,03,16,6.30
2006,10,13,03,17,6.30
2006,10,13,03,18,6.30
2006,10,13,03,19,6.20
2006,10,13,03,20,6.20
2006,10,13,03,21,6.20
2006,10,13,03,22,6.10
2006,10,13,03,23,6.10
2006,10,13,03,24,6.10
2006,10,13,03,25,6.10
2006,10,13,03,26,6.00
2006,10,13,03,27,5.90
2006,10,13,03,28,5.90
2006,10,13,03,29,5.90
2006,10,13,03,30,5.90
2006,10,13,03,31,5.90
2006,10,13,03,32,6.00
2006,10,13,03,33,6.00
2006,10,13,03,34,6.00
2006,10,13,03,35,6.00
2006,10,13,03,36,5.90
2006,10,13,03,37,5.90
2006,10,13,03,38,5.90
2006,10,13,03,39,5.90
2006,10,13,03,40,6.40
2006,10,13,03,41,6.80
2006,10,13,03,42,6.80
2006,10,13,03,43,6.80
2006,10,13,03,44,6.80
2006,10,13,03,45,6.80
2006,10,13,03,46,6.80
2006,10,13,03,47,6.80
2006,10,13,03,48,6.80
2006,10,13,03,49,6.80
2006,10,13,03,50,6.80
2006,10,13,03,51,6.80
2006,10,13,03,52,6.80
2006,10,13,03,53,6.80
2006,10,13,03,54,6.80
2006,10,13,03,55,6.70
2006,10,13,03,56,6.70
2006,10,13,03,57,6.70
2006,10,13,03,58,6.70
2006,10,13,03,59,6.70
2006,10,13,04,00,6.70
2006,10,13,04,01,6.70
2006,10,13,04,02,6.70
2006,10,13,04,03,6.70
2006,10,13,04,04,6.70
2006,10,13,04,05,6.70
2006,10,13,04,06,6.70
2006,10,13,04,07,6.70
2006,10,13,04,08,6.70
2006,10,13,04,09,6.70
2006,10,13,04,10,6.70
2006,10,13,04,11,6.70
2006,10,13,04,12,6.70
2006,10,13,04,13,6.70
2006,10,13,04,14,6.70
2006,10,13,04,15,6.60
2006,10,13,04,16,6.60
2006,10,13,04,17,6.60
2006,10,13,04,18,6.60
2006,10,13,04,19,5.60
2006,10,13,04,20,5.40
2006,10,13,04,21,5.40
2006,10,13,04,22,5.40
2006,10,13,04,23,5.30
2006,10,13,04,24,5.30
2006,10,13,04,25,5.30
2006,10,13,04,26,5.30
2006,10,13,04,27,5.30
2006,10,13,04,28,5.30
2006,10,13,04,29,5.30
2006,10,13,04,30,5.30
2006,10,13,04,31,5.20
2006,10,13,04,32,5.20
2006,10,13,04,33,5.20
2006,10,13,04,34,5.10
2006,10,13,04,35,5.20
2006,10,13,04,36,5.10
2006,10,13,04,37,5.10
2006,10,13,04,38,5.10
2006,10,13,04,39,5.10
2006,10,13,04,40,5.10
2006,10,13,04,41,5.20
2006,10,13,04,42,5.20
2006,10,13,04,43,5.20
2006,10,13,04,44,5.20
2006,10,13,04,45,5.20
2006,10,13,04,46,5.20
2006,10,13,04,47,5.20
2006,10,13,04,48,5.20
2006,10,13,04,49,5.20
2006,10,13,04,50,5.20
2006,10,13,04,51,5.10
2006,10,13,04,52,5.10
2006,10,13,04,53,5.10
2006,10,13,04,54,5.10
2006,10,13,04,55,5.00
2006,10,13,04,56,5.00
2006,10,13,04,57,5.00
2006,10,13,04,58,5.00
2006,10,13,04,59,5.00
2006,10,13,05,00,5.00
2006,10,13,05,01,5.00
2006,10,13,05,02,5.00
2006,10,13,05,03,5.00
2006,10,13,05,04,5.00
2006,10,13,05,05,4.90
2006,10,13,05,06,4.90
2006,10,13,05,07,4.90
2006,10,13,05,08,4.90
2006,10,13,05,09,4.90
2006,10,13,05,10,4.90
2006,10,13,05,11,4.90
2006,10,13,05,12,4.90
2006,10,13,05,13,4.90
2006,10,13,05,14,4.80
2006,10,13,05,15,4.80
2006,10,13,05,16,4.80
2006,10,13,05,17,4.80
2006,10,13,05,18,4.80
2006,10,13,05,19,4.80
2006,10,13,05,20,4.80
2006,10,13,05,21,4.80
2006,10,13,05,22,4.80
2006,10,13,05,23,5.60
2006,10,13,05,24,6.00
2006,10,13,05,25,6.00
2006,10,13,05,26,6.00
2006,10,13,05,27,6.00
2006,10,13,05,28,6.10
2006,10,13,05,29,6.10
2006,10,13,05,30,6.10
2006,10,13,05,31,6.10
2006,10,13,05,32,6.10
2006,10,13,05,33,6.10
2006,10,13,05,34,6.10
2006,10,13,05,35,6.10
2006,10,13,05,36,6.10
2006,10,13,05,37,6.10
2006,10,13,05,38,6.10
2006,10,13,05,39,6.00
2006,10,13,05,40,6.00
2006,10,13,05,41,6.00
2006,10,13,05,42,5.90
2006,10,13,05,43,5.90
2006,10,13,05,44,5.90
2006,10,13,05,45,5.90
2006,10,13,05,46,5.80
2006,10,13,05,47,5.80
2006,10,13,05,48,5.80
2006,10,13,05,49,5.80
2006,10,13,05,50,5.80
2006,10,13,05,51,5.80
2006,10,13,05,52,5.70
2006,10,13,05,53,5.70
2006,10,13,05,54,5.70
2006,10,13,05,55,5.70
2006,10,13,05,56,5.70
2006,10,13,05,57,5.70
2006,10,13,05,58,5.70
2006,10,13,05,59,5.70
2006,10,13,06,00,5.70
2006,10,13,06,01,5.70
2006,10,13,06,02,5.70
2006,10,13,06,03,5.70
2006,10,13,06,04,5.70
2006,10,13,06,05,5.70
2006,10,13,06,06,5.70
2006,10,13,06,07,5.70
2006,10,13,06,08,5.70
2006,10,13,06,09,5.70
2006,10,13,06,10,5.60
2006,10,13,06,11,5.60
2006,10,13,06,12,5.60
2006,10,13,06,13,5.60
2006,10,13,06,14,5.60
2006,10,13,06,15,5.60
2006,10,13,06,16,5.60
2006,10,13,06,17,5.50
2006,10,13,06,18,5.50
2006,10,13,06,19,5.50
2006,10,13,06,20,5.60
2006,10,13,06,21,5.60
2006,10,13,06,22,5.60
2006,10,13,06,23,5.60
2006,10,13,06,24,5.60
2006,10,13,06,25,5.60
2006,10,13,06,26,5.60
2006,10,13,06,27,5.50
2006,10,13,06,28,5.50
2006,10,13,06,29,5.50
2006,10,13,06,30,5.50
2006,10,13,06,31,5.50
2006,10,13,06,32,5.50
2006,10,13,06,33,5.50
2006,10,13,06,34,5.50
2006,10,13,06,35,5.50
2006,10,13,06,36,5.50
2006,10,13,06,37,5.50
2006,10,13,06,38,5.50
2006,10,13,06,39,5.50
2006,10,13,06,40,5.50
2006,10,13,06,41,5.50
2006,10,13,06,42,5.40
2006,10,13,06,43,5.40
2006,10,13,06,44,5.40
2006,10,13,06,45,5.40
2006,10,13,06,46,5.40
2006,10,13,06,47,5.30
2006,10,13,06,48,5.30
2006,10,13,06,49,5.30
2006,10,13,06,50,5.30
2006,10,13,06,51,5.30
2006,10,13,06,52,5.40
2006,10,13,06,53,5.40
2006,10,13,06,54,5.40
2006,10,13,06,55,5.40
2006,10,13,06,56,5.30
2006,10,13,06,57,5.00
2006,10,13,06,58,4.20
2006,10,13,06,59,4.20
2006,10,13,07,00,4.20
2006,10,13,07,01,4.20
2006,10,13,07,02,4.20
2006,10,13,07,03,4.20
2006,10,13,07,04,4.30
2006,10,13,07,05,4.30
2006,10,13,07,06,4.40
2006,10,13,07,07,4.30
2006,10,13,07,08,4.30
2006,10,13,07,09,4.30
2006,10,13,07,10,4.30
2006,10,13,07,11,4.60
2006,10,13,07,12,5.30
2006,10,13,07,13,5.30
2006,10,13,07,14,5.30
2006,10,13,07,15,5.30
2006,10,13,07,16,5.30
2006,10,13,07,17,5.30
2006,10,13,07,18,5.30
2006,10,13,07,19,5.30
2006,10,13,07,20,5.30
2006,10,13,07,21,5.30
2006,10,13,07,22,5.30
2006,10,13,07,23,5.30
2006,10,13,07,24,4.60
2006,10,13,07,25,4.40
2006,10,13,07,26,4.40
2006,10,13,07,27,4.30
2006,10,13,07,28,4.30
2006,10,13,07,29,4.30
2006,10,13,07,30,4.30
2006,10,13,07,31,4.30
2006,10,13,07,32,4.20
2006,10,13,07,33,4.30
2006,10,13,07,34,4.30
2006,10,13,07,35,4.30
2006,10,13,07,36,4.30
2006,10,13,07,37,4.30
2006,10,13,07,38,4.30
2006,10,13,07,39,4.30
2006,10,13,07,40,4.30
2006,10,13,07,41,4.30
2006,10,13,07,42,4.40
2006,10,13,07,43,4.30
2006,10,13,07,44,4.30
2006,10,13,07,45,4.30
2006,10,13,07,46,4.30
2006,10,13,07,47,4.30
2006,10,13,07,48,4.30
2006,10,13,07,49,4.30
2006,10,13,07,50,4.30
2006,10,13,07,51,4.30
2006,10,13,07,52,4.30
2006,10,13,07,53,4.40
2006,10,13,07,54,4.40
2006,10,13,07,55,4.40
2006,10,13,07,56,4.50
2006,10,13,07,57,4.50
2006,10,13,07,58,4.60
2006,10,13,07,59,4.60
2006,10,13,08,00,4.70
2006,10,13,08,01,4.70
2006,10,13,08,02,4.80
2006,10,13,08,03,4.80
2006,10,13,08,04,4.80
2006,10,13,08,05,4.80
2006,10,13,08,06,4.90
2006,10,13,08,07,4.90
2006,10,13,08,08,4.90
2006,10,13,08,09,5.40
2006,10,13,08,10,6.40
2006,10,13,08,11,6.40
2006,10,13,08,12,6.40
2006,10,13,08,13,6.60
2006,10,13,08,14,6.60
2006,10,13,08,15,6.60
2006,10,13,08,16,6.70
2006,10,13,08,17,6.70
2006,10,13,08,18,6.80
2006,10,13,08,19,6.80
2006,10,13,08,20,6.90
2006,10,13,08,21,6.90
2006,10,13,08,22,7.00
2006,10,13,08,23,7.00
2006,10,13,08,24,7.10
2006,10,13,08,25,7.10
2006,10,13,08,26,7.20
2006,10,13,08,27,7.20
2006,10,13,08,28,7.20
2006,10,13,08,29,7.20
2006,10,13,08,30,7.20
2006,10,13,08,31,7.20
2006,10,13,08,32,7.20
2006,10,13,08,33,7.30
2006,10,13,08,34,7.30
2006,10,13,08,35,7.30
2006,10,13,08,36,7.30
2006,10,13,08,37,7.30
2006,10,13,08,38,7.30
2006,10,13,08,39,7.30
2006,10,13,08,40,7.30
2006,10,13,08,41,7.30
2006,10,13,08,42,7.30
2006,10,13,08,43,7.30
2006,10,13,08,44,7.30
2006,10,13,08,45,7.40
2006,10,13,08,46,7.40
2006,10,13,08,47,7.40
2006,10,13,08,48,7.50
2006,10,13,08,49,7.60
2006,10,13,08,50,7.70
2006,10,13,08,51,7.80
2006,10,13,08,52,7.80
2006,10,13,08,53,7.80
2006,10,13,08,54,7.90
2006,10,13,08,55,7.90
2006,10,13,08,56,8.00
2006,10,13,08,57,8.00
2006,10,13,08,58,8.10
2006,10,13,08,59,8.20
2006,10,13,09,00,8.20
2006,10,13,09,01,8.20
2006,10,13,09,02,8.10
2006,10,13,09,03,8.10
2006,10,13,09,04,8.10
2006,10,13,09,05,8.20
2006,10,13,09,06,8.20
2006,10,13,09,07,8.20
2006,10,13,09,08,8.30
2006,10,13,09,09,8.40
2006,10,13,09,10,8.40
2006,10,13,09,11,8.40
2006,10,13,09,12,8.40
2006,10,13,09,13,8.50
2006,10,13,09,14,8.50
2006,10,13,09,15,8.50
2006,10,13,09,16,8.60
2006,10,13,09,17,8.70
2006,10,13,09,18,8.70
2006,10,13,09,19,8.80
2006,10,13,09,20,8.80
2006,10,13,09,21,8.90
2006,10,13,09,22,8.90
2006,10,13,09,23,9.00
2006,10,13,09,24,9.00
2006,10,13,09,25,9.10
2006,10,13,09,26,9.20
2006,10,13,09,27,9.20
2006,10,13,09,28,9.40
2006,10,13,09,29,9.50
2006,10,13,09,30,9.50
2006,10,13,09,31,9.60
2006,10,13,09,32,9.70
2006,10,13,09,33,9.70
2006,10,13,09,34,9.70
2006,10,13,09,35,9.80
2006,10,13,09,36,9.80
2006,10,13,09,37,9.90
2006,10,13,09,38,9.90
2006,10,13,09,39,10.00
2006,10,13,09,40,10.10
2006,10,13,09,41,10.10
2006,10,13,09,42,10.20
2006,10,13,09,43,10.30
2006,10,13,09,44,10.30
2006,10,13,09,45,10.40
2006,10,13,09,46,10.40
2006,10,13,09,47,10.60
2006,10,13,09,48,10.70
2006,10,13,09,49,10.90
2006,10,13,09,50,11.00
2006,10,13,09,51,11.10
2006,10,13,09,52,11.20
2006,10,13,09,53,11.30
2006,10,13,09,54,11.40
2006,10,13,09,55,11.50
2006,10,13,09,56,11.60
2006,10,13,09,57,11.70
2006,10,13,09,58,11.80
2006,10,13,09,59,11.80
2006,10,13,10,00,11.80
2006,10,13,10,01,11.80
2006,10,13,10,02,11.90
2006,10,13,10,03,11.90
2006,10,13,10,04,11.90
2006,10,13,10,05,11.90
2006,10,13,10,06,11.90
2006,10,13,10,07,12.00
2006,10,13,10,08,12.00
2006,10,13,10,09,12.00
2006,10,13,10,10,12.00
2006,10,13,10,11,12.00
2006,10,13,10,12,11.90
2006,10,13,10,13,12.00
2006,10,13,10,14,12.00
2006,10,13,10,15,12.10
2006,10,13,10,16,12.10
2006,10,13,10,17,12.20
2006,10,13,10,18,12.20
2006,10,13,10,19,12.20
2006,10,13,10,20,12.20
2006,10,13,10,21,12.10
2006,10,13,10,22,12.20
2006,10,13,10,23,12.20
2006,10,13,10,24,12.20
2006,10,13,10,25,12.20
2006,10,13,10,26,12.30
2006,10,13,10,27,12.30
2006,10,13,10,28,12.30
2006,10,13,10,29,12.30
2006,10,13,10,30,12.40
2006,10,13,10,31,12.50
2006,10,13,10,32,12.60
2006,10,13,10,33,12.70
2006,10,13,10,34,12.70
2006,10,13,10,35,12.70
2006,10,13,10,36,12.70
2006,10,13,10,37,12.70
2006,10,13,10,38,12.80
2006,10,13,10,39,12.80
2006,10,13,10,40,12.80
2006,10,13,10,41,12.80
2006,10,13,10,42,12.80
2006,10,13,10,43,13.00
2006,10,13,10,44,13.10
2006,10,13,10,45,13.20
2006,10,13,10,46,13.20
2006,10,13,10,47,13.20
2006,10,13,10,48,13.10
2006,10,13,10,49,13.10
2006,10,13,10,50,13.00
2006,10,13,10,51,13.00
2006,10,13,10,52,13.10
2006,10,13,10,53,13.10
2006,10,13,10,54,13.10
2006,10,13,10,55,13.10
2006,10,13,10,56,13.10
2006,10,13,10,57,13.20
2006,10,13,10,58,13.20
2006,10,13,10,59,13.20
2006,10,13,11,00,13.10
2006,10,13,11,01,13.10
2006,10,13,11,02,13.10
2006,10,13,11,03,13.10
2006,10,13,11,04,13.10
2006,10,13,11,05,13.10
2006,10,13,11,06,13.10
2006,10,13,11,07,13.10
2006,10,13,11,08,13.10
2006,10,13,11,09,13.10
2006,10,13,11,10,13.10
2006,10,13,11,11,13.20
2006,10,13,11,12,13.30
2006,10,13,11,13,13.30
2006,10,13,11,14,13.30
2006,10,13,11,15,13.30
2006,10,13,11,16,13.30
2006,10,13,11,17,13.40
2006,10,13,11,18,13.50
2006,10,13,11,19,13.50
2006,10,13,11,20,13.60
2006,10,13,11,21,13.70
2006,10,13,11,22,13.70
2006,10,13,11,23,13.80
2006,10,13,11,24,13.90
2006,10,13,11,25,13.90
2006,10,13,11,26,14.00
2006,10,13,11,27,14.00
2006,10,13,11,28,14.00
2006,10,13,11,29,14.00
2006,10,13,11,30,14.00
2006,10,13,11,31,14.20
2006,10,13,11,32,14.20
2006,10,13,11,33,14.20
2006,10,13,11,34,14.20
2006,10,13,11,35,14.20
2006,10,13,11,36,14.20
2006,10,13,11,37,14.20
2006,10,13,11,38,14.20
2006,10,13,11,39,14.30
2006,10,13,11,40,14.40
2006,10,13,11,41,14.40
2006,10,13,11,42,14.50
2006,10,13,11,43,14.60
2006,10,13,11,44,14.70
2006,10,13,11,45,14.80
2006,10,13,11,46,14.80
2006,10,13,11,47,14.90
2006,10,13,11,48,14.90
2006,10,13,11,49,14.90
2006,10,13,11,50,15.00
2006,10,13,11,51,15.00
2006,10,13,11,52,15.10
2006,10,13,11,53,15.20
2006,10,13,11,54,15.30
2006,10,13,11,55,15.30
2006,10,13,11,56,15.30
2006,10,13,11,57,15.30
2006,10,13,11,58,15.30
2006,10,13,11,59,15.30
2006,10,13,12,00,15.30
2006,10,13,12,01,15.10
2006,10,13,12,02,14.90
2006,10,13,12,03,14.70
2006,10,13,12,04,14.50
2006,10,13,12,05,14.30
2006,10,13,12,06,14.10
2006,10,13,12,07,13.90
2006,10,13,12,08,13.90
2006,10,13,12,09,13.90
2006,10,13,12,10,13.80
2006,10,13,12,11,13.70
2006,10,13,12,12,13.70
2006,10,13,12,13,13.70
2006,10,13,12,14,13.70
2006,10,13,12,15,13.70
2006,10,13,12,16,13.70
2006,10,13,12,17,13.70
2006,10,13,12,18,13.70
2006,10,13,12,19,13.80
2006,10,13,12,20,13.90
2006,10,13,12,21,13.90
2006,10,13,12,22,14.00
2006,10,13,12,23,13.90
2006,10,13,12,24,13.90
2006,10,13,12,25,13.90
2006,10,13,12,26,13.80
2006,10,13,12,27,13.90
2006,10,13,12,28,13.90
2006,10,13,12,29,13.90
2006,10,13,12,30,13.90
2006,10,13,12,31,14.00
2006,10,13,12,32,14.00
2006,10,13,12,33,14.10
2006,10,13,12,34,14.20
2006,10,13,12,35,14.10
2006,10,13,12,36,14.00
2006,10,13,12,37,14.10
2006,10,13,12,38,14.10
2006,10,13,12,39,14.10
2006,10,13,12,40,14.10
2006,10,13,12,41,14.20
2006,10,13,12,42,14.20
2006,10,13,12,43,14.20
2006,10,13,12,44,14.30
2006,10,13,12,45,14.30
2006,10,13,12,46,14.30
2006,10,13,12,47,14.30
2006,10,13,12,48,14.20
2006,10,13,12,49,14.10
2006,10,13,12,50,14.00
2006,10,13,12,51,14.00
2006,10,13,12,52,14.00
2006,10,13,12,53,14.10
2006,10,13,12,54,14.00
2006,10,13,12,55,13.90
2006,10,13,12,56,13.90
2006,10,13,12,57,14.00
2006,10,13,12,58,14.00
2006,10,13,12,59,14.00
2006,10,13,13,00,14.00
2006,10,13,13,01,14.00
2006,10,13,13,02,14.00
2006,10,13,13,03,14.10
2006,10,13,13,04,14.10
2006,10,13,13,05,14.20
2006,10,13,13,06,14.10
2006,10,13,13,07,14.00
2006,10,13,13,08,14.00
2006,10,13,13,09,14.00
2006,10,13,13,10,14.00
2006,10,13,13,11,13.90
2006,10,13,13,12,14.00
2006,10,13,13,13,14.00
2006,10,13,13,14,14.20
2006,10,13,13,15,14.20
2006,10,13,13,16,14.20
2006,10,13,13,17,14.20
2006,10,13,13,18,14.20
2006,10,13,13,19,14.20
2006,10,13,13,20,14.20
2006,10,13,13,21,14.20
2006,10,13,13,22,14.20
2006,10,13,13,23,14.20
2006,10,13,13,24,14.20
2006,10,13,13,25,14.20
2006,10,13,13,26,14.20
2006,10,13,13,27,14.20
2006,10,13,13,28,14.20
2006,10,13,13,29,14.30
2006,10,13,13,30,14.30
2006,10,13,13,31,14.40
2006,10,13,13,32,14.40
2006,10,13,13,33,14.40
2006,10,13,13,34,14.40
2006,10,13,13,35,14.40
2006,10,13,13,36,14.20
2006,10,13,13,37,14.10
2006,10,13,13,38,14.10
2006,10,13,13,39,14.10
2006,10,13,13,40,14.10
2006,10,13,13,41,14.20
2006,10,13,13,42,14.10
2006,10,13,13,43,14.10
2006,10,13,13,44,14.10
2006,10,13,13,45,14.10
2006,10,13,13,46,14.20
2006,10,13,13,47,14.20
2006,10,13,13,48,14.20
2006,10,13,13,49,14.30
2006,10,13,13,50,14.30
2006,10,13,13,51,14.30
2006,10,13,13,52,14.30
2006,10,13,13,53,14.30
2006,10,13,13,54,14.20
2006,10,13,13,55,14.20
2006,10,13,13,56,14.20
2006,10,13,13,57,14.10
2006,10,13,13,58,14.10
2006,10,13,13,59,14.10
2006,10,13,14,00,14.10
2006,10,13,14,01,14.20
2006,10,13,14,02,14.40
2006,10,13,14,03,14.40
2006,10,13,14,04,14.40
2006,10,13,14,05,14.40
2006,10,13,14,06,14.40
2006,10,13,14,07,14.40
2006,10,13,14,08,14.40
2006,10,13,14,09,14.40
2006,10,13,14,10,14.40
2006,10,13,14,11,14.40
2006,10,13,14,12,14.40
2006,10,13,14,13,14.40
2006,10,13,14,14,14.50
2006,10,13,14,15,14.50
2006,10,13,14,16,14.50
2006,10,13,14,17,14.50
2006,10,13,14,18,14.50
2006,10,13,14,19,14.40
2006,10,13,14,20,14.30
2006,10,13,14,21,14.20
2006,10,13,14,22,14.20
2006,10,13,14,23,14.30
2006,10,13,14,24,14.30
2006,10,13,14,25,14.20
2006,10,13,14,26,14.20
2006,10,13,14,27,14.30
2006,10,13,14,28,14.30
2006,10,13,14,29,14.30
2006,10,13,14,30,14.30
2006,10,13,14,31,14.40
2006,10,13,14,32,14.30
2006,10,13,14,33,14.30
2006,10,13,14,34,14.40
2006,10,13,14,35,14.40
2006,10,13,14,36,14.40
2006,10,13,14,37,14.60
2006,10,13,14,38,14.60
2006,10,13,14,39,14.70
2006,10,13,14,40,14.70
2006,10,13,14,41,14.70
2006,10,13,14,42,14.60
2006,10,13,14,43,14.60
2006,10,13,14,44,14.50
2006,10,13,14,45,14.50
2006,10,13,14,46,14.40
2006,10,13,14,47,14.30
2006,10,13,14,48,14.20
2006,10,13,14,49,14.20
2006,10,13,14,50,14.10
2006,10,13,14,51,14.00
2006,10,13,14,52,14.00
2006,10,13,14,53,14.00
2006,10,13,14,54,13.90
2006,10,13,14,55,13.80
2006,10,13,14,56,13.80
2006,10,13,14,57,13.70
2006,10,13,14,58,13.70
2006,10,13,14,59,13.70
2006,10,13,15,00,13.70
2006,10,13,15,01,13.70
2006,10,13,15,02,13.60
2006,10,13,15,03,13.50
2006,10,13,15,04,13.50
2006,10,13,15,05,13.50
2006,10,13,15,06,13.50
2006,10,13,15,07,13.50
2006,10,13,15,08,13.40
2006,10,13,15,09,13.40
2006,10,13,15,10,13.40
2006,10,13,15,11,13.40
2006,10,13,15,12,13.50
2006,10,13,15,13,13.50
2006,10,13,15,14,13.50
2006,10,13,15,15,13.50
2006,10,13,15,16,13.60
2006,10,13,15,17,13.60
2006,10,13,15,18,13.60
2006,10,13,15,19,13.60
2006,10,13,15,20,13.60
2006,10,13,15,21,13.60
2006,10,13,15,22,13.60
2006,10,13,15,23,13.60
2006,10,13,15,24,13.60
2006,10,13,15,25,13.70
2006,10,13,15,26,13.70
2006,10,13,15,27,13.60
2006,10,13,15,28,13.60
2006,10,13,15,29,13.50
2006,10,13,15,30,13.50
2006,10,13,15,31,13.40
2006,10,13,15,32,13.30
2006,10,13,15,33,13.30
2006,10,13,15,34,13.40
2006,10,13,15,35,13.50
2006,10,13,15,36,13.60
2006,10,13,15,37,13.70
2006,10,13,15,38,13.70
2006,10,13,15,39,13.70
2006,10,13,15,40,13.80
2006,10,13,15,41,13.80
2006,10,13,15,42,13.70
2006,10,13,15,43,13.70
2006,10,13,15,44,13.70
2006,10,13,15,45,13.70
2006,10,13,15,46,13.70
2006,10,13,15,47,13.70
2006,10,13,15,48,13.70
2006,10,13,15,49,13.70
2006,10,13,15,50,13.70
2006,10,13,15,51,13.70
2006,10,13,15,52,13.60
2006,10,13,15,53,13.60
2006,10,13,15,54,13.60
2006,10,13,15,55,13.50
2006,10,13,15,56,13.50
2006,10,13,15,57,13.50
2006,10,13,15,58,13.60
2006,10,13,15,59,13.60
2006,10,13,16,00,13.70
2006,10,13,16,01,13.70
2006,10,13,16,02,13.70
2006,10,13,16,03,13.70
2006,10,13,16,04,13.70
2006,10,13,16,05,13.80
2006,10,13,16,06,13.80
2006,10,13,16,07,13.90
2006,10,13,16,08,14.00
2006,10,13,16,09,14.00
2006,10,13,16,10,14.10
2006,10,13,16,11,14.20
2006,10,13,16,12,14.20
2006,10,13,16,13,14.10
2006,10,13,16,14,14.00
2006,10,13,16,15,13.90
2006,10,13,16,16,13.80
2006,10,13,16,17,13.70
2006,10,13,16,18,13.70
2006,10,13,16,19,13.70
2006,10,13,16,20,13.70
2006,10,13,16,21,13.80
2006,10,13,16,22,13.90
2006,10,13,16,23,14.00
2006,10,13,16,24,14.00
2006,10,13,16,25,14.00
2006,10,13,16,26,14.10
2006,10,13,16,27,14.20
2006,10,13,16,28,14.20
2006,10,13,16,29,14.20
2006,10,13,16,30,14.20
2006,10,13,16,31,14.20
2006,10,13,16,32,14.20
2006,10,13,16,33,14.00
2006,10,13,16,34,14.00
2006,10,13,16,35,14.00
2006,10,13,16,36,14.00
2006,10,13,16,37,14.00
2006,10,13,16,38,13.90
2006,10,13,16,39,13.90
2006,10,13,16,40,13.90
2006,10,13,16,41,13.90
2006,10,13,16,42,13.90
2006,10,13,16,43,13.80
2006,10,13,16,44,13.80
2006,10,13,16,45,13.80
2006,10,13,16,46,13.70
2006,10,13,16,47,13.70
2006,10,13,16,48,13.70
2006,10,13,16,49,13.70
2006,10,13,16,50,13.70
2006,10,13,16,51,13.70
2006,10,13,16,52,13.70
2006,10,13,16,53,13.70
2006,10,13,16,54,13.70
2006,10,13,16,55,13.70
2006,10,13,16,56,13.70
2006,10,13,16,57,13.70
2006,10,13,16,58,13.70
2006,10,13,16,59,13.70
2006,10,13,17,00,13.70
2006,10,13,17,01,13.60
2006,10,13,17,02,13.60
2006,10,13,17,03,13.60
2006,10,13,17,04,13.60
2006,10,13,17,05,13.70
2006,10,13,17,06,13.60
2006,10,13,17,07,13.60
2006,10,13,17,08,13.50
2006,10,13,17,09,13.50
2006,10,13,17,10,13.50
2006,10,13,17,11,13.50
2006,10,13,17,12,13.50
2006,10,13,17,13,13.50
2006,10,13,17,14,13.40
2006,10,13,17,15,13.40
2006,10,13,17,16,13.30
2006,10,13,17,17,13.30
2006,10,13,17,18,13.30
2006,10,13,17,19,13.30
2006,10,13,17,20,13.30
2006,10,13,17,21,13.30
2006,10,13,17,22,13.30
2006,10,13,17,23,13.20
2006,10,13,17,24,13.10
2006,10,13,17,25,13.00
2006,10,13,17,26,13.00
2006,10,13,17,27,12.90
2006,10,13,17,28,12.80
2006,10,13,17,29,12.80
2006,10,13,17,30,12.80
2006,10,13,17,31,12.80
2006,10,13,17,32,12.80
2006,10,13,17,33,12.80
2006,10,13,17,34,12.70
2006,10,13,17,35,12.70
2006,10,13,17,36,12.70
2006,10,13,17,37,12.60
2006,10,13,17,38,12.60
2006,10,13,17,39,12.60
2006,10,13,17,40,12.50
2006,10,13,17,41,12.50
2006,10,13,17,42,12.50
2006,10,13,17,43,12.50
2006,10,13,17,44,12.50